Weather History for Monterey, CA

Change the Weather History Date:

Tuesday, May 7, 2013

  Actual Average Record
Temperature  
Mean Temperature 61 °F 56 °F  
Max Temperature 70 °F 63 °F 85 °F (2007)
Min Temperature 52 °F 49 °F 43 °F (2002)
Degree Days  
Heating Degree Days 4    
Month to date heating degree days 24  
Since 1 July heating degree days 2967  
Cooling Degree Days 0    
Month to date cooling degree days 7  
Year to date cooling degree days 7  
Growing Degree Days 11 (Base 50)    
Moisture  
Dew Point 52 °F    
Average Humidity 70    
Maximum Humidity 93    
Minimum Humidity 47    
Precipitation  
Precipitation 0.00 in - 0.17 in (2003)
Month to date precipitation 0.00  
Year to date precipitation 3.09  
Since 1 July precipitation 11.33  
Sea Level Pressure  
Sea Level Pressure 30.06 in    
Wind  
Wind Speed 5 mph (West)    
Max Wind Speed 20 mph    
Max Gust Speed 25 mph    
Visibility 8 miles    
Events      
T = Trace of Precipitation, MM = Missing Value Source: NWS Daily Summary

Daily Weather History Graph

Daily Weather History Graph

Search for Another Location

Airport:

Trip Planner

Search our weather history database for the weather conditions in past years. The results will help you decide how hot, cold, wet, or windy it might be!

Date:

Astronomy

May. 07, 2013 Rise Set
Actual Time 6:07 AM PDT 8:01 PM PDT
Civil Twilight 5:38 AM PDT 8:29 PM PDT
Nautical Twilight 5:04 AM PDT 9:03 PM PDT
Astronomical Twilight 4:28 AM PDT 9:40 PM PDT
Moon 4:40 AM PDT (5/7) 6:08 PM PDT (5/7)
Length of Visible Light 14h 50m
Length of Day
13h 54m
Waning Crescent, 5% of the Moon is Illuminated
May 7
Waning Crescent
May 9
New
May 17
First Quarter
May 24
Full
May 31
Last Quarter

Hourly Weather History & Observations

Time (PDT) Temp. Dew Point Humidity Pressure Visibility Wind Dir Wind Speed Gust Speed Precip Events Conditions
12:54 AM 57.9 °F 51.1 °F 78% 30.02 in 10.0 mi SW 3.5 mph - N/A   Overcast
1:54 AM 57.9 °F 51.1 °F 78% 30.01 in 10.0 mi Calm Calm - N/A   Overcast
2:54 AM 57.0 °F 52.0 °F 83% 30.01 in 9.0 mi Calm Calm - N/A   Overcast
3:54 AM 57.0 °F 52.0 °F 83% 30.01 in 9.0 mi Calm Calm - N/A   Overcast
4:54 AM 57.0 °F 51.1 °F 81% 30.01 in 10.0 mi Calm Calm - N/A   Overcast
5:54 AM 55.9 °F 52.0 °F 87% 30.02 in 10.0 mi Calm Calm - N/A   Overcast
6:54 AM 55.9 °F 51.1 °F 84% 30.04 in 10.0 mi North - - N/A   Overcast
7:54 AM 57.0 °F 52.0 °F 83% 30.06 in 9.0 mi Calm Calm - N/A   Overcast
8:54 AM 59.0 °F 52.0 °F 78% 30.07 in 10.0 mi NW 3.5 mph - N/A   Overcast
9:54 AM 62.1 °F 52.0 °F 70% 30.07 in 10.0 mi WNW 4.6 mph - N/A   Overcast
10:54 AM 62.1 °F 51.1 °F 67% 30.08 in 10.0 mi NW 6.9 mph - N/A   Clear
11:54 AM 62.1 °F 52.0 °F 70% 30.09 in 10.0 mi NW 8.1 mph - N/A   Mostly Cloudy
12:54 PM 69.1 °F 51.1 °F 53% 30.07 in 10.0 mi SW 9.2 mph - N/A   Mostly Cloudy
1:54 PM 69.1 °F 48.9 °F 49% 30.06 in 10.0 mi SW 10.4 mph - N/A   Partly Cloudy
2:54 PM 69.1 °F 48.0 °F 47% 30.06 in 10.0 mi WSW 12.7 mph - N/A   Clear
3:54 PM 66.9 °F 51.1 °F 57% 30.04 in 10.0 mi SW 13.8 mph 21.9 mph N/A   Clear
4:54 PM 64.0 °F 50.0 °F 60% 30.05 in 10.0 mi SW 13.8 mph 21.9 mph N/A   Clear
5:54 PM 64.0 °F 50.0 °F 60% 30.06 in 10.0 mi WSW 13.8 mph - N/A   Clear
6:54 PM 60.1 °F 53.1 °F 78% 30.07 in 10.0 mi Variable 6.9 mph - N/A   Scattered Clouds
7:50 PM 55.4 °F 53.6 °F 94% 30.04 in 3.0 mi WNW 6.9 mph - N/A   Mostly Cloudy
7:54 PM 55.9 °F 53.1 °F 90% 30.08 in 3.0 mi WNW 5.8 mph - N/A   Mostly Cloudy
8:54 PM 55.0 °F 53.1 °F 93% 30.09 in 10.0 mi Calm Calm - N/A   Overcast
9:31 PM 53.6 °F 51.8 °F 94% 30.07 in 7.0 mi Calm Calm - N/A   Overcast
9:54 PM 54.0 °F 52.0 °F 93% 30.11 in 9.0 mi Calm Calm - N/A   Mostly Cloudy
10:05 PM 53.6 °F 51.8 °F 94% 30.08 in 10.0 mi Calm Calm - N/A   Scattered Clouds
10:40 PM 53.6 °F 51.8 °F 94% 30.08 in 2.0 mi Calm Calm - N/A   Mostly Cloudy
10:54 PM 53.1 °F 52.0 °F 96% 30.12 in 4.0 mi Calm Calm - N/A   Mostly Cloudy
11:40 PM 53.6 °F 51.8 °F 94% 30.08 in 1.8 mi Calm Calm - N/A   Overcast
11:51 PM 53.6 °F 51.8 °F 94% 30.08 in 0.8 mi Calm Calm - N/A   Overcast
11:54 PM 53.1 °F 52.0 °F 96% 30.11 in 0.8 mi Calm Calm - N/A   Overcast